Regional Weather Roundup
Issued by NWS

Home | Current Version | Previous Version | Graphics & Text | Print | Product List | Glossary On
Versions: 1 2 3 4 5 6 7 8 9 10 11 12 13 14 15 16 17 18 19 20 21 22 23 24 25 26 27 28 29 30 31 32 33 34 35 36 37 38 39 40 41 42 43 44 45 46 47 48 49 50
454
ASUS43 KLMK 292310
RWRKY
KENTUCKY REGIONAL WEATHER ROUNDUP
NATIONAL WEATHER SERVICE LOUISVILLE KY
700 PM EDT WED MAR 29 2017

NOTE "FAIR" INDICATES FEW OR NO CLOUDS BELOW 12,000 FEET
WITH NO SIGNIFICANT WEATHER AND/OR OBSTRUCTIONS TO VISIBILITY.

KYZ001>023-026-027-061>063-070>075-300000-
WESTERN AND SOUTH CENTRAL KENTUCKY

CITY           SKY/WX    TMP DP  RH WIND       PRES   REMARKS
PADUCAH        CLOUDY    75  60  59 E5        29.83F
HENDERSON      PTSUNNY   70  54  56 E10       29.87F
OWENSBORO      SUNNY     70  55  59 E16       29.91F
HOPKINSVILLE   PTSUNNY   74  58  56 E12       29.85F
BOWLING GREEN  SUNNY     74  55  51 E10       29.92F
GLASGOW        SUNNY     72  56  56 NE8       29.94F
$$

KYZ024-025-028>034-038-045-046-053-300000-
NORTH CENTRAL KENTUCKY

CITY           SKY/WX    TMP DP  RH WIND       PRES   REMARKS
LOUISVILLE/SDF MOSUNNY   66  48  52 E12       30.00F
LOUISVILLE/LOU SUNNY     65  49  56 E12       30.01F
FORT KNOX      SUNNY     65  52  63 E14G20    29.97S
$$

KYZ035>037-039>044-047>052-055>060-089>105-300000-
NORTHEAST KENTUCKY

CITY           SKY/WX    TMP DP  RH WIND       PRES   REMARKS
LEXINGTON      SUNNY     64  48  56 E13       30.03F
COVINGTON      CLOUDY    56  46  69 E13       30.06F
FRANKFORT      SUNNY     63  48  58 E12       30.02F
$$

KYZ054-064>069-076>088-106>120-300000-
SOUTHEAST KENTUCKY

CITY           SKY/WX    TMP DP  RH WIND       PRES   REMARKS
JACKSON        CLEAR     65  49  56 VRB5      30.06S
LONDON         SUNNY     70  49  47 NE7       30.01F
SOMERSET       SUNNY     68  52  56 N8        30.00F
MIDDLESBORO    SUNNY     76  50  39 NE5       30.00S
MONTICELLO     CLEAR     71  55  56 N15G21    30.00F
$$





USA.gov is the U.S. government's official web portal to all federal, state and local government web resources and services.